Weather History for LKPR - January, 2013

Change the Weather History Date:

Sunday, January 20, 2013

  Actual Average Record
Temperature  
Mean Temperature 21 °F -  
Max Temperature 26 °F 36 °F 55 °F (2007)
Min Temperature 18 °F 23 °F 18 °F (2013)
Degree Days  
Heating Degree Days 44    
Moisture  
Dew Point 19 °F    
Average Humidity 88    
Maximum Humidity 93    
Minimum Humidity 80    
Precipitation  
Precipitation 0.02 in 0.03 in - ()
Sea Level Pressure  
Sea Level Pressure 29.47 in    
Wind  
Wind Speed 6 mph ()    
Max Wind Speed 11 mph    
Max Gust Speed -    
Visibility 3.9 miles    
Events Rain , Snow    
Averages and records for this station are not official NWS values.
T = Trace of Precipitation, MM = Missing Value Source: Averaged Metar Reports

Daily Weather History Graph

Daily Weather History Graph

Search for Another Location

Airport or City:

Trip Planner

Search our weather history database for the weather conditions in past years. The results will help you decide how hot, cold, wet, or windy it might be!

Date:

Astronomy

Jan. 20, 2013 Rise Set
Actual Time 7:51 AM CET 4:37 PM CET
Civil Twilight 7:15 AM CET 5:13 PM CET
Nautical Twilight 6:35 AM CET 5:53 PM CET
Astronomical Twilight 5:56 AM CET 6:32 PM CET
Moon 11:30 AM CET (1/20) 2:02 AM CET (1/20)
Length of Visible Light 9h 58m
Length of Day
8h 45m
Waxing Gibbous, 64% of the Moon is Illuminated
Jan 20
Waxing Gibbous
Jan 27
Full
Feb 3
Last Quarter
Feb 10
New
Feb 17
First Quarter

Hourly Weather History & Observations

Time (CET) Temp. Windchill Dew Point Humidity Pressure Visibility Wind Dir Wind Speed Gust Speed Precip Events Conditions
12:00 AM 19.4 °F 12.8 °F 15.8 °F 86% 29.50 in 3.7 mi NE 4.6 mph - N/A   Overcast
12:30 AM 19.4 °F 10.4 °F 15.8 °F 86% 29.50 in 3.7 mi NE 6.9 mph - N/A   Overcast
1:00 AM 19 °F - 15 °F 80% 29.61 in 4 mi NNE 6.7 mph - -   Mist
1:00 AM 19.4 °F 11.5 °F 15.8 °F 86% 29.50 in 3.7 mi NE 5.8 mph - N/A   Overcast
1:30 AM 19.4 °F 10.4 °F 15.8 °F 86% 29.50 in 3.7 mi NE 6.9 mph - N/A   Overcast
2:00 AM 19.4 °F 10.4 °F 15.8 °F 86% 29.47 in 3.7 mi NE 6.9 mph - N/A   Overcast
2:30 AM 19.4 °F 10.4 °F 15.8 °F 86% 29.47 in 3.7 mi ENE 6.9 mph - N/A   Overcast
3:00 AM 19.4 °F 11.5 °F 15.8 °F 86% 29.47 in 3.1 mi ENE 5.8 mph - N/A   Overcast
3:30 AM 19.4 °F 11.5 °F 17.6 °F 93% 29.50 in 3.7 mi East 5.8 mph - N/A   Overcast
4:00 AM 19.4 °F 11.5 °F 17.6 °F 93% 29.50 in 3.1 mi East 5.8 mph - N/A   Overcast
4:30 AM 19.4 °F 11.5 °F 17.6 °F 93% 29.47 in 3.7 mi East 5.8 mph - N/A   Overcast
5:00 AM 21.2 °F 14.9 °F 17.6 °F 86% 29.50 in 3.1 mi East 4.6 mph - N/A   Overcast
5:30 AM 21.2 °F 13.6 °F 17.6 °F 86% 29.47 in 3.1 mi East 5.8 mph - N/A   Overcast
6:00 AM 21.2 °F 11.7 °F 17.6 °F 86% 29.47 in 3.1 mi ENE 8.1 mph - N/A   Overcast
6:30 AM 21.2 °F 12.6 °F 17.6 °F 86% 29.47 in 3.1 mi ENE 6.9 mph - N/A   Overcast
7:00 AM 20 °F - 18 °F 89% 29.57 in 3 mi East 8.9 mph - -   Mist
7:00 AM 21.2 °F 11.7 °F 17.6 °F 86% 29.47 in 3.1 mi East 8.1 mph - N/A   Overcast
7:30 AM 21.2 °F 12.6 °F 17.6 °F 86% 29.47 in 3.1 mi East 6.9 mph - N/A   Overcast
8:00 AM 21.2 °F 11.7 °F 17.6 °F 86% 29.47 in 2.8 mi East 8.1 mph - N/A   Overcast
8:30 AM 21.2 °F 10.9 °F 17.6 °F 86% 29.47 in 3.1 mi ESE 9.2 mph - N/A   Overcast
9:00 AM 21.2 °F 10.9 °F 17.6 °F 86% 29.47 in 3.1 mi ESE 9.2 mph - N/A   Overcast
9:30 AM 21.2 °F 11.7 °F 17.6 °F 86% 29.50 in 3.7 mi East 8.1 mph - N/A   Overcast
10:00 AM 21.2 °F 12.6 °F 17.6 °F 86% 29.50 in 4.3 mi ESE 6.9 mph - N/A   Overcast
10:30 AM 21.2 °F 14.9 °F 17.6 °F 86% 29.50 in 4.3 mi East 4.6 mph - N/A   Overcast
11:00 AM 21.2 °F 12.6 °F 17.6 °F 86% 29.50 in 5.6 mi East 6.9 mph - N/A   Overcast
11:30 AM 21.2 °F 10.9 °F 19.4 °F 93% 29.47 in 5.0 mi ENE 9.2 mph - N/A   Overcast
12:00 PM 23.0 °F 13.1 °F 19.4 °F 86% 29.47 in 5.0 mi ENE 9.2 mph - N/A   Overcast
12:30 PM 21.2 °F 10.9 °F 19.4 °F 93% 29.47 in 4.3 mi ENE 9.2 mph - N/A   Overcast
1:00 PM 22 °F - 19 °F 83% 29.57 in 4 mi ENE 11.2 mph - -   Mist
1:00 PM 21.2 °F 10.1 °F 19.4 °F 93% 29.47 in 3.7 mi ENE 10.4 mph - N/A   Overcast
1:30 PM 23.0 °F 13.1 °F 19.4 °F 86% 29.47 in 3.1 mi ENE 9.2 mph - N/A   Overcast
2:00 PM 23.0 °F 12.4 °F 19.4 °F 86% 29.44 in 3.7 mi ENE 10.4 mph - N/A   Overcast
2:30 PM 23.0 °F 13.1 °F 19.4 °F 86% 29.44 in 2.8 mi ENE 9.2 mph - N/A   Overcast
3:00 PM 23.0 °F 13.1 °F 19.4 °F 86% 29.44 in 3.7 mi ENE 9.2 mph - N/A   Overcast
3:30 PM 23.0 °F 13.1 °F 19.4 °F 86% 29.44 in 5.0 mi ENE 9.2 mph - N/A   Overcast
4:00 PM 23.0 °F 13.9 °F 19.4 °F 86% 29.44 in 5.0 mi East 8.1 mph - N/A   Overcast
4:30 PM 23.0 °F 13.9 °F 21.2 °F 93% 29.44 in 5.6 mi NE 8.1 mph - N/A   Overcast
5:00 PM 23.0 °F 14.7 °F 21.2 °F 93% 29.44 in 5.0 mi NE 6.9 mph - N/A   Overcast
5:30 PM 24.8 °F 16.1 °F 21.2 °F 86% 29.44 in 5.0 mi ENE 8.1 mph - N/A   Overcast
6:00 PM 24.8 °F 17.9 °F 21.2 °F 86% 29.44 in 5.6 mi NE 5.8 mph - N/A   Overcast
6:30 PM 24.8 °F 17.9 °F 21.2 °F 86% 29.44 in 5.0 mi NE 5.8 mph - N/A   Overcast
7:00 PM 24 °F - 22 °F 86% 29.54 in 4 mi NNE 6.7 mph - -   Mist
7:00 PM 24.8 °F 17.9 °F 21.2 °F 86% 29.44 in 4.3 mi NNE 5.8 mph - N/A   Overcast
7:30 PM 24.8 °F 19.1 °F 21.2 °F 86% 29.44 in 5.0 mi North 4.6 mph - N/A   Overcast
8:00 PM 24.8 °F 19.1 °F 21.2 °F 86% 29.44 in 4.3 mi NNE 4.6 mph - N/A   Overcast
8:30 PM 24.8 °F 17.9 °F 23.0 °F 93% 29.44 in 4.3 mi North 5.8 mph - N/A   Overcast
8:47 PM 24.8 °F 17.9 °F 21.2 °F 86% 29.44 in 3.7 mi North 5.8 mph - N/A Snow Light Snow
9:00 PM 24.8 °F 17.9 °F 21.2 °F 86% 29.44 in 3.7 mi North 5.8 mph - N/A   Light Ice Pellets
9:30 PM 24.8 °F 19.1 °F 23.0 °F 93% 29.44 in 3.7 mi NNE 4.6 mph - N/A   Light Ice Pellets
10:00 PM 24.8 °F 17.9 °F 23.0 °F 93% 29.42 in 3.7 mi NNE 5.8 mph - N/A   Overcast
10:30 PM 24.8 °F 16.1 °F 23.0 °F 93% 29.42 in 3.7 mi ENE 8.1 mph - N/A   Overcast
11:00 PM 24.8 °F 16.1 °F 23.0 °F 93% 29.42 in 3.1 mi ENE 8.1 mph - N/A Rain Light Freezing Rain
11:30 PM 26.6 °F 19.1 °F 24.8 °F 93% 29.42 in 3.1 mi NE 6.9 mph - N/A Rain Light Freezing Rain